This is the latest recevied weather packets stored in our database for station/object SQ9PDE-13. If no packets are shown the sender has not sent any weather packets the latest 10 day(s).
| Time | Temp. | Humidity | Pressure | Rain* | Wind** | Luminosity | Snow |
|---|---|---|---|---|---|---|---|
| 1787844541 | 23.33° C | 38% | 1021.5 hPa | - | - | - | - |
| 1787844241 | 23.33° C | 38% | 1021.5 hPa | - | - | - | - |
| 1787843940 | 23.33° C | 39% | 1021.5 hPa | - | - | - | - |
| 1787840718 | 23.33° C | 38% | 1021.3 hPa | - | - | - | - |
| 1787840478 | 23.33° C | 38% | 1021.3 hPa | - | - | - | - |
| 1787840417 | 23.33° C | 38% | 1021.3 hPa | - | - | - | - |
| 1787840116 | 23.89° C | 37% | 1021.2 hPa | - | - | - | - |
| 1787839816 | 23.89° C | 37% | 1021.2 hPa | - | - | - | - |
| 1787839515 | 23.89° C | 37% | 1021.2 hPa | - | - | - | - |
| 1787839215 | 23.33° C | 39% | 1021.2 hPa | - | - | - | - |
| 1787838914 | 22.78° C | 39% | 1021.3 hPa | - | - | - | - |
| 1787838614 | 23.33° C | 38% | 1021.3 hPa | - | - | - | - |
| 1787838313 | 23.33° C | 37% | 1021.3 hPa | - | - | - | - |
| 1787838013 | 23.89° C | 37% | 1021.3 hPa | - | - | - | - |
| 1787837712 | 23.89° C | 36% | 1021.3 hPa | - | - | - | - |
| 1787837412 | 23.89° C | 37% | 1021.4 hPa | - | - | - | - |
| 1787837111 | 23.89° C | 36% | 1021.4 hPa | - | - | - | - |
| 1787836811 | 23.89° C | 37% | 1021.4 hPa | - | - | - | - |
| 1787824601 | 23.89° C | 39% | 1022.4 hPa | - | - | - | - |
| 1787824300 | 23.33° C | 43% | 1022.7 hPa | - | - | - | - |
| 1787824000 | 22.78° C | 44% | 1022.7 hPa | - | - | - | - |
| 1787823699 | 22.78° C | 44% | 1022.8 hPa | - | - | - | - |
| 1787823399 | 23.89° C | 44% | 1022.7 hPa | - | - | - | - |
| 1787823098 | 22.78° C | 45% | 1022.7 hPa | - | - | - | - |
| 1787822797 | 24.44° C | 44% | 1022.5 hPa | - | - | - | - |
* Rain since midnight (hover to see other rain measurements)
** Current wind speed in m/s (hover to see current wind gust speed)